Location: Holmbach
(49.5093°N, 8.8411°E)
Time: 04:16:09
(UTC+00:00)

Cosmos 1844 Rocket - Pass Details

Date: 17 June 2025
Orbit: 822 x 844 km, 71.0° (Epoch: 12 July)

Event Time Altitude Azimuth Distance (km) Brightness Sun altitude
Exits shadow 23:43:19 - 243° (WSW) 2,931 5.2 -17.0°
Reaches altitude 10° 23:44:42 10° 249° (WSW) 2,461 4.9 -17.0°
Maximum altitude 23:49:45 32° 313° (NW) 1,407 4.2 -16.9°
Drops below altitude 10° 23:54:50 10° 16° (NNE) 2,477 6.4 -16.8°
Sets 23:57:33 0° 26° (NNE) 3,415 7.3 -16.7°
